This demonstration page uses our WeatherBlox Daily Observations layout. Learn more.

Left ArrowRight Arrow

Hourly Observations for April 15, 2021

Temp ( °F °C ) Dew Point ( °F °C ) Humidity (%) Winds ( mph kmh ) Pressure ( in mb ) Visibility ( mi km ) Precip ( " mm )
12:15 am 00:15 Mostly Cloudy 35 1.5 26 -3.1 72 72 ENE 7 11 30.35 1028 10 16.0934 0 0
12:35 am 00:35 Partly Cloudy 34 1 26 -3.5 72 72 NE 7 11 30.36 1028 10 16.0934 0 0
12:55 am 00:55 Partly Cloudy 33 0.4 25 -3.8 74 74 NE 6 9 30.36 1028 10 16.0934 0 0
1:15 am 01:15 Partly Cloudy 32 0 25 -3.8 76 76 NNE 5 7 30.37 1028 10 16.0934 0 0
1:35 am 01:35 Clear 32 0 26 -3.6 77 77 NNE 5 7 30.37 1028 10 16.0934 0 0
1:55 am 01:55 Clear 32 0 25 -3.8 76 76 NNE 5 7 30.37 1028 10 16.0934 0 0
2:15 am 02:15 Clear 32 0.1 25 -3.7 76 76 NNE 6 9 30.35 1028 10 16.0934 0 0
2:35 am 02:35 Clear 34 1 27 -3 75 75 Calm 30.35 1028 10 16.0934 0 0
2:55 am 02:55 Clear 34 1.3 27 -2.8 74 74 N 3 6 30.33 1027 10 16.0934 0 0
3:15 am 03:15 Partly Cloudy 34 1.3 27 -3 73 73 Calm 30.33 1027 10 16.0934 0 0
3:35 am 03:35 Mostly Cloudy 35 1.5 27 -2.8 73 73 Calm 30.33 1027 10 16.0934 0 0
3:55 am 03:55 Mostly Cloudy 33 0.5 26 -3.2 77 77 N 6 9 30.32 1027 10 16.0934 0 0
4:15 am 04:15 Cloudy 33 0.3 26 -3.1 78 78 N 3 6 30.33 1027 10 16.0934 0 0
4:35 am 04:35 Cloudy 33 0.6 26 -3.1 77 77 N 3 6 30.32 1027 10 16.0934 0 0
4:55 am 04:55 Cloudy 33 0.5 26 -3.1 77 77 N 5 7 30.32 1027 10 16.0934 0 0
5:15 am 05:15 Mostly Cloudy 32 -0.1 26 -3.5 78 78 N 5 7 30.33 1027 10 16.0934 0 0
5:35 am 05:35 Mostly Cloudy 31 -0.3 26 -3.6 79 79 N 6 9 30.33 1027 10 16.0934 0 0
5:55 am 05:55 Partly Cloudy 29 -1.5 25 -4.1 83 83 NNE 5 7 30.33 1027 10 16.0934 0 0
6:15 am 06:15 Clear 29 -1.6 25 -4 84 84 NNE 3 6 30.32 1027 10 16.0934 0 0
6:35 am 06:35 Clear 30 -1 26 -3.5 83 83 NNE 6 9 30.32 1027 10 16.0934 0 0
6:55 am 06:55 Clear 30 -1.2 25 -3.7 83 83 N 3 6 30.33 1027 10 16.0934 0 0
7:15 am 07:15 Partly Cloudy 29 -1.5 25 -4.1 83 83 Calm 30.33 1027 10 16.0934 0 0
7:35 am 07:35 Sunny 30 -0.9 26 -3.5 83 83 Calm 30.32 1027 10 16.0934 0 0
7:55 am 07:55 Partly Cloudy 32 0 28 -2.5 83 83 Calm 30.33 1027 10 16.0934 0 0
8:15 am 08:15 Partly Cloudy 33 0.8 29 -1.8 83 83 Calm 30.33 1027 10 16.0934 0 0
8:35 am 08:35 Sunny 36 2.1 28 -2 75 75 NE 5 7 30.32 1027 10 16.0934 0 0
8:55 am 08:55 Partly Cloudy 37 2.8 28 -2 71 71 E 6 9 30.31 1026 10 16.0934 0 0
9:15 am 09:15 Cloudy 38 3.3 29 -1.6 71 71 ENE 8 13 30.3 1026 10 16.0934 0 0
9:35 am 09:35 Partly Cloudy 38 3.6 29 -1.5 70 70 ENE 8 13 30.29 1026 10 16.0934 0 0
9:55 am 09:55 Sunny 39 4.1 30 -1.3 68 68 E 6 9 30.29 1026 10 16.0934 0 0
10:15 am 10:15 Sunny 40 4.7 30 -1.3 65 65 E 6 9 30.28 1025 10 16.0934 0 0
10:35 am 10:35 Sunny 41 5.1 30 -1.3 64 64 E 7 11 30.28 1025 10 16.0934 0 0
10:55 am 10:55 Partly Cloudy 42 5.5 29 -1.5 61 61 E 7 11 30.26 1025 10 16.0934 0 0
11:15 am 11:15 Partly Cloudy 43 5.9 30 -1.3 60 60 E 7 11 30.25 1024 10 16.0934 0 0
11:35 am 11:35 Mostly Cloudy 43 6 29 -1.6 59 59 E 7 11 30.24 1024 10 16.0934 0 0
11:55 am 11:55 Cloudy 44 6.5 29 -1.4 57 57 E 5 7 30.23 1024 10 16.0934 0 0
12:15 pm 12:15 Cloudy 44 6.9 29 -1.4 56 56 E 8 13 30.22 1023 10 16.0934 0 0
12:35 pm 12:35 Cloudy 44 6.9 29 -1.8 54 54 E 7 11 30.21 1023 10 16.0934 0 0
12:55 pm 12:55 Cloudy 45 7.2 29 -1.5 54 54 NE 8 13 30.19 1022 10 16.0934 0 0
1:15 pm 13:15 Cloudy 45 7.4 29 -1.4 54 54 E 5 7 30.19 1022 10 16.0934 0 0
1:35 pm 13:35 Mostly Cloudy 47 8.1 30 -1 53 53 ESE 7 11 30.17 1022 10 16.0934 0 0
1:55 pm 13:55 Mostly Cloudy 47 8.5 30 -1 52 52 E 7 11 30.16 1021 10 16.0934 0 0
2:15 pm 14:15 Cloudy 48 8.7 30 -1.1 51 51 E 6 9 30.14 1021 10 16.0934 0 0
2:35 pm 14:35 Mostly Cloudy 48 8.8 30 -1.2 50 50 E 7 11 30.13 1020 10 16.0934 0 0
2:55 pm 14:55 Mostly Cloudy 49 9.2 31 -0.8 50 50 E 3 6 30.12 1020 10 16.0934 0 0
3:15 pm 15:15 Cloudy 49 9.6 31 -0.5 50 50 E 10 17 30.11 1020 10 16.0934 0 0
3:35 pm 15:35 Cloudy 49 9.5 31 -0.8 49 49 ENE 9 15 30.09 1019 10 16.0934 0 0
3:55 pm 15:55 Cloudy 49 9.2 30 -1 49 49 ENE 3 6 30.09 1019 10 16.0934 0 0
4:15 pm 16:15 Cloudy 48 9.1 30 -1.2 49 49 E 7 11 30.09 1019 10 16.0934 0 0
4:35 pm 16:35 Cloudy 49 9.3 30 -1.2 48 48 Calm 30.09 1019 10 16.0934 0 0
4:55 pm 16:55 Cloudy 48 9.1 30 -1.3 48 48 NE 5 7 30.08 1019 10 16.0934 0 0
5:15 pm 17:15 Cloudy 49 9.3 30 -1.2 48 48 E 6 9 30.08 1019 10 16.0934 0 0
5:35 pm 17:35 Cloudy 49 9.5 30 -1 48 48 E 5 7 30.08 1019 10 16.0934 0 0
5:55 pm 17:55 Cloudy 49 9.2 30 -1.1 49 49 ENE 8 13 30.08 1019 10 16.0934 0 0
6:15 pm 18:15 Cloudy 49 9.2 30 -0.9 50 50 ENE 7 11 30.07 1018 10 16.0934 0 0
6:35 pm 18:35 Cloudy 48 9.1 30 -1 50 50 ENE 8 13 30.07 1018 10 16.0934 0 0
6:55 pm 18:55 Cloudy 48 9 31 -0.7 51 51 E 9 15 30.07 1018 10 16.0934 0 0
7:15 pm 19:15 Cloudy 48 9 31 -0.7 51 51 ENE 8 13 30.08 1019 10 16.0934 0 0
7:35 pm 19:35 Cloudy 48 8.9 31 -0.6 52 52 ENE 8 13 30.08 1019 10 16.0934 0 0
7:55 pm 19:55 Cloudy 48 8.7 31 -0.8 52 52 ENE 9 15 30.08 1019 10 16.0934 0 0
8:15 pm 20:15 Cloudy 47 8.4 31 -0.7 53 53 ENE 8 13 30.08 1019 10 16.0934 0 0
8:35 pm 20:35 Cloudy 47 8.1 31 -0.6 55 55 ENE 8 13 30.07 1018 10 16.0934 0 0
8:55 pm 20:55 Cloudy 46 7.8 31 -0.7 55 55 ENE 7 11 30.08 1019 10 16.0934 0 0
9:15 pm 21:15 Cloudy 46 7.6 31 -0.5 57 57 ENE 6 9 30.08 1019 10 16.0934 0 0
9:35 pm 21:35 Cloudy 46 7.6 31 -0.5 57 57 E 7 11 30.09 1019 10 16.0934 0 0
9:55 pm 21:55 Cloudy 46 7.5 31 -0.4 58 58 ENE 3 6 30.11 1019 10 16.0934 0 0
10:15 pm 22:15 Cloudy 46 7.5 31 -0.6 57 57 ENE 10 17 30.12 1020 10 16.0934 0 0
10:35 pm 22:35 Cloudy with Light Rain 45 7 32 -0.2 61 61 ENE 8 13 30.13 1020 10 16.0934 0 0
10:55 pm 22:55 Cloudy with Drizzle 44 6.5 33 0.3 65 65 NE 12 19 30.13 1020 10 16.0934 0 0
11:15 pm 23:15 Cloudy with Drizzle 43 6 33 0.6 69 69 NE 16 26 30.14 1021 10 16.0934 0 0
11:35 pm 23:35 Cloudy with Rain 42 5.3 35 1.4 76 76 ENE 8 13 30.15 1021 10 16.0934 0 0
11:55 pm 23:55 Cloudy with Light Rain 40 4.2 34 1.1 80 80 E 15 24 30.16 1021 7 11.26538 0.04 1.016

Powered by AerisWeather